パンスターズ彗星

C/2017 Y1 ( PanSTARRS )

English version
Home page
Updated on March 3, 2018

---------------------------------------------------------------------

・ プロフィール

発見日 2017年12月24日
発見光度 20.6等
発見者 Pan-STARRS 1 telescope (Haleakala)

・ 軌道要素

Epoch 2017 Sept. 4.0 TT = JDT 2458000.5
T 2017 Aug. 31.43977 TT                                 MPCW
q   3.7183342            (2000.0)            P               Q
z  +0.0002530      Peri.  134.43758     -0.10337714     -0.75148464
 +/-0.0000412      Node   307.51347     +0.50369378     +0.52534589
e   0.9990594      Incl.   55.23256     +0.85767461     -0.39910216
From 80 observations 2017 Dec. 24-2018 Feb. 13, mean residual 0".5.

・ 光度変化

        m1 = 10.5 + 5 logΔ + 10.0 log r

---------------------------------------------------------------------

軌道要素はM.P.E.C. 2018-D91に掲載されたものです。
光度グラフはComet for Windowsで作成したものです。

---------------------------------------------------------------------

Copyright(C) Seiichi Yoshida (comet@aerith.net). All rights reserved.